#Datum;Uhrzeit;WR;Pac;DaySum;Status;WR;Pac;DaySum;Status;Pdc1;Udc;Temp;WR;Pac;DaySum;Status;Pdc1;Udc;Temp;WR;Pac;DaySum;Status;Pdc1;Udc;Temp;WR;Pac;DaySum;Status;Pdc1;Pdc2;Udc1;Udc2;Temp;WR;Pac;DaySum;Status;Pdc1;Pdc2;Udc1;Udc2;Temp;WR;Pac;DaySum;Status;Pdc1;Udc;Temp;WR;Pac;DaySum;Status;Pdc1;Udc;Temp;WR;Pac;DaySum;Status;Pdc1;Udc;Temp
25.10.19;23:55:00;1;300;8667;0;2;0;7905;0;0;0;0;3;0;4689;0;0;0;0;4;0;5850;0;0;0;0;5;0;14058;0;0;0;0;0;0;6;0;10242;0;0;0;0;0;0;7;0;9346;0;0;0;0;8;0;9116;0;0;0;0;9;0;4591;0;0;0;0
25.10.19;23:50:00;1;308;8641;0;2;0;7905;0;0;0;0;3;0;4689;0;0;0;0;4;0;5850;0;0;0;0;5;0;14058;0;0;0;0;0;0;6;0;10242;0;0;0;0;0;0;7;0;9346;0;0;0;0;8;0;9116;0;0;0;0;9;0;4591;0;0;0;0
25.10.19;23:45:00;1;283;8616;0;2;0;7905;0;0;0;0;3;0;4689;0;0;0;0;4;0;5850;0;0;0;0;5;0;14058;0;0;0;0;0;0;6;0;10242;0;0;0;0;0;0;7;0;9346;0;0;0;0;8;0;9116;0;0;0;0;9;0;4591;0;0;0;0
25.10.19;23:40:00;1;284;8592;0;2;0;7905;0;0;0;0;3;0;4689;0;0;0;0;4;0;5850;0;0;0;0;5;0;14058;0;0;0;0;0;0;6;0;10242;0;0;0;0;0;0;7;0;9346;0;0;0;0;8;0;9116;0;0;0;0;9;0;4591;0;0;0;0
25.10.19;23:35:00;1;296;8568;0;2;0;7905;0;0;0;0;3;0;4689;0;0;0;0;4;0;5850;0;0;0;0;5;0;14058;0;0;0;0;0;0;6;0;10242;0;0;0;0;0;0;7;0;9346;0;0;0;0;8;0;9116;0;0;0;0;9;0;4591;0;0;0;0
25.10.19;23:30:00;1;311;8543;0;2;0;7905;0;0;0;0;3;0;4689;0;0;0;0;4;0;5850;0;0;0;0;5;0;14058;0;0;0;0;0;0;6;0;10242;0;0;0;0;0;0;7;0;9346;0;0;0;0;8;0;9116;0;0;0;0;9;0;4591;0;0;0;0
25.10.19;23:25:00;1;369;8518;0;2;0;7905;0;0;0;0;3;0;4689;0;0;0;0;4;0;5850;0;0;0;0;5;0;14058;0;0;0;0;0;0;6;0;10242;0;0;0;0;0;0;7;0;9346;0;0;0;0;8;0;9116;0;0;0;0;9;0;4591;0;0;0;0
25.10.19;23:20:00;1;258;8490;0;2;0;7905;0;0;0;0;3;0;4689;0;0;0;0;4;0;5850;0;0;0;0;5;0;14058;0;0;0;0;0;0;6;0;10242;0;0;0;0;0;0;7;0;9346;0;0;0;0;8;0;9116;0;0;0;0;9;0;4591;0;0;0;0
25.10.19;23:15:00;1;302;8468;0;2;0;7905;0;0;0;0;3;0;4689;0;0;0;0;4;0;5850;0;0;0;0;5;0;14058;0;0;0;0;0;0;6;0;10242;0;0;0;0;0;0;7;0;9346;0;0;0;0;8;0;9116;0;0;0;0;9;0;4591;0;0;0;0
25.10.19;23:10:00;1;260;8443;0;2;0;7905;0;0;0;0;3;0;4689;0;0;0;0;4;0;5850;0;0;0;0;5;0;14058;0;0;0;0;0;0;6;0;10242;0;0;0;0;0;0;7;0;9346;0;0;0;0;8;0;9116;0;0;0;0;9;0;4591;0;0;0;0
25.10.19;23:05:00;1;237;8421;0;2;0;7905;0;0;0;0;3;0;4689;0;0;0;0;4;0;5850;0;0;0;0;5;0;14058;0;0;0;0;0;0;6;0;10242;0;0;0;0;0;0;7;0;9346;0;0;0;0;8;0;9116;0;0;0;0;9;0;4591;0;0;0;0
25.10.19;23:00:00;1;241;8400;0;2;0;7905;0;0;0;0;3;0;4689;0;0;0;0;4;0;5850;0;0;0;0;5;0;14058;0;0;0;0;0;0;6;0;10242;0;0;0;0;0;0;7;0;9346;0;0;0;0;8;0;9116;0;0;0;0;9;0;4591;0;0;0;0
25.10.19;22:55:00;1;308;8380;0;2;0;7905;0;0;0;0;3;0;4689;0;0;0;0;4;0;5850;0;0;0;0;5;0;14058;2;0;0;0;0;0;6;0;10242;2;0;0;0;0;0;7;0;9346;0;0;0;0;8;0;9116;0;0;0;0;9;0;4591;0;0;0;0
25.10.19;22:50:00;1;304;8354;0;2;0;7905;0;0;0;0;3;0;4689;0;0;0;0;4;0;5850;0;0;0;0;5;0;14058;2;0;0;0;0;0;6;0;10242;2;0;0;0;0;0;7;0;9346;0;0;0;0;8;0;9116;0;0;0;0;9;0;4591;0;0;0;0
25.10.19;22:45:00;1;263;8329;0;2;0;7905;0;0;0;0;3;0;4689;0;0;0;0;4;0;5850;0;0;0;0;5;0;14058;2;0;0;0;0;0;6;0;10242;2;0;0;0;0;0;7;0;9346;0;0;0;0;8;0;9116;0;0;0;0;9;0;4591;0;0;0;0
25.10.19;22:40:00;1;308;8307;0;2;0;7905;0;0;0;0;3;0;4689;0;0;0;0;4;0;5850;0;0;0;0;5;0;14058;2;0;0;0;0;0;6;0;10242;2;0;0;0;0;0;7;0;9346;0;0;0;0;8;0;9116;0;0;0;0;9;0;4591;0;0;0;0
25.10.19;22:35:00;1;274;8281;0;2;0;7905;0;0;0;0;3;0;4689;0;0;0;0;4;0;5850;0;0;0;0;5;0;14058;2;0;0;0;0;0;6;0;10242;2;0;0;0;0;0;7;0;9346;0;0;0;0;8;0;9116;0;0;0;0;9;0;4591;0;0;0;0
25.10.19;22:30:00;1;363;8258;0;2;0;7905;0;0;0;0;3;0;4689;0;0;0;0;4;0;5850;0;0;0;0;5;0;14058;2;0;0;0;0;0;6;0;10242;2;0;0;0;0;0;7;0;9346;0;0;0;0;8;0;9116;0;0;0;0;9;0;4591;0;0;0;0
25.10.19;22:25:00;1;282;8228;0;2;0;7905;0;0;0;0;3;0;4689;0;0;0;0;4;0;5850;0;0;0;0;5;0;14058;2;0;0;0;0;0;6;0;10242;2;0;0;0;0;0;7;0;9346;0;0;0;0;8;0;9116;0;0;0;0;9;0;4591;0;0;0;0
25.10.19;22:20:00;1;257;8206;0;2;0;7905;0;0;0;0;3;0;4689;0;0;0;0;4;0;5850;0;0;0;0;5;0;14058;2;0;0;0;0;0;6;0;10242;2;0;0;0;0;0;7;0;9346;0;0;0;0;8;0;9116;0;0;0;0;9;0;4591;0;0;0;0
25.10.19;22:15:00;1;256;8185;0;2;0;7905;0;0;0;0;3;0;4689;0;0;0;0;4;0;5850;0;0;0;0;5;0;14058;2;0;0;0;0;0;6;0;10242;2;0;0;0;0;0;7;0;9346;0;0;0;0;8;0;9116;0;0;0;0;9;0;4591;0;0;0;0
25.10.19;22:10:00;1;288;8162;0;2;0;7905;0;0;0;0;3;0;4689;0;0;0;0;4;0;5850;0;0;0;0;5;0;14058;2;0;0;0;0;0;6;0;10242;2;0;0;0;0;0;7;0;9346;0;0;0;0;8;0;9116;0;0;0;0;9;0;4591;0;0;0;0
25.10.19;22:05:00;1;211;8138;0;2;0;7905;0;0;0;0;3;0;4689;0;0;0;0;4;0;5850;0;0;0;0;5;0;14058;2;0;0;0;0;0;6;0;10242;2;0;0;0;0;0;7;0;9346;0;0;0;0;8;0;9116;0;0;0;0;9;0;4591;0;0;0;0
25.10.19;22:00:00;1;272;8120;0;2;0;7905;0;0;0;0;3;0;4689;0;0;0;0;4;0;5850;0;0;0;0;5;0;14058;2;0;0;0;0;0;6;0;10242;2;0;0;0;0;0;7;0;9346;0;0;0;0;8;0;9116;0;0;0;0;9;0;4591;0;0;0;0
25.10.19;21:55:00;1;217;8099;0;2;0;7905;0;0;0;0;3;0;4689;0;0;0;0;4;0;5850;0;0;0;0;5;0;14058;2;0;0;0;0;0;6;0;10242;2;0;0;0;0;0;7;0;9346;0;0;0;0;8;0;9116;0;0;0;0;9;0;4591;0;0;0;0
25.10.19;21:50:00;1;274;8081;0;2;0;7905;0;0;0;0;3;0;4689;0;0;0;0;4;0;5850;0;0;0;0;5;0;14058;2;0;0;0;0;0;6;0;10242;2;0;0;0;0;0;7;0;9346;0;0;0;0;8;0;9116;0;0;0;0;9;0;4591;0;0;0;0
25.10.19;21:45:00;1;274;8058;0;2;0;7905;0;0;0;0;3;0;4689;0;0;0;0;4;0;5850;0;0;0;0;5;0;14058;2;0;0;0;0;0;6;0;10242;2;0;0;0;0;0;7;0;9346;0;0;0;0;8;0;9116;0;0;0;0;9;0;4591;0;0;0;0
25.10.19;21:40:00;1;306;8035;0;2;0;7905;0;0;0;0;3;0;4689;0;0;0;0;4;0;5850;0;0;0;0;5;0;14058;2;0;0;0;0;0;6;0;10242;2;0;0;0;0;0;7;0;9346;0;0;0;0;8;0;9116;0;0;0;0;9;0;4591;0;0;0;0
25.10.19;21:35:00;1;336;8009;0;2;0;7905;0;0;0;0;3;0;4689;0;0;0;0;4;0;5850;0;0;0;0;5;0;14058;2;0;0;0;0;0;6;0;10242;2;0;0;0;0;0;7;0;9346;0;0;0;0;8;0;9116;0;0;0;0;9;0;4591;0;0;0;0
25.10.19;21:30:00;1;439;7980;0;2;0;7905;0;0;0;0;3;0;4689;0;0;0;0;4;0;5850;0;0;0;0;5;0;14058;2;0;0;0;0;0;6;0;10242;2;0;0;0;0;0;7;0;9346;0;0;0;0;8;0;9116;0;0;0;0;9;0;4591;0;0;0;0
25.10.19;21:25:00;1;398;7945;0;2;0;7905;0;0;0;0;3;0;4689;0;0;0;0;4;0;5850;0;0;0;0;5;0;14058;2;0;0;0;0;0;6;0;10242;2;0;0;0;0;0;7;0;9346;0;0;0;0;8;0;9116;0;0;0;0;9;0;4591;0;0;0;0
25.10.19;21:20:00;1;499;7912;0;2;0;7905;0;0;0;0;3;0;4689;0;0;0;0;4;0;5850;0;0;0;0;5;0;14058;2;0;0;0;0;0;6;0;10242;2;0;0;0;0;0;7;0;9346;0;0;0;0;8;0;9116;0;0;0;0;9;0;4591;0;0;0;0
25.10.19;21:15:00;1;413;7872;0;2;0;7905;0;0;0;0;3;0;4689;0;0;0;0;4;0;5850;0;0;0;0;5;0;14058;2;0;0;0;0;0;6;0;10242;2;0;0;0;0;0;7;0;9346;0;0;0;0;8;0;9116;0;0;0;0;9;0;4591;0;0;0;0
25.10.19;21:10:00;1;413;7837;0;2;0;7905;0;0;0;0;3;0;4689;0;0;0;0;4;0;5850;0;0;0;0;5;0;14058;2;0;0;0;0;0;6;0;10242;2;0;0;0;0;0;7;0;9346;0;0;0;0;8;0;9116;0;0;0;0;9;0;4591;0;0;0;0
25.10.19;21:05:00;1;485;7803;0;2;0;7905;0;0;0;0;3;0;4689;0;0;0;0;4;0;5850;0;0;0;0;5;0;14058;2;0;0;0;0;0;6;0;10242;2;0;0;0;0;0;7;0;9346;0;0;0;0;8;0;9116;0;0;0;0;9;0;4591;0;0;0;0
25.10.19;21:00:00;1;418;7763;0;2;0;7905;0;0;0;0;3;0;4689;0;0;0;0;4;0;5850;0;0;0;0;5;0;14058;2;0;0;0;0;0;6;0;10242;2;0;0;0;0;0;7;0;9346;0;0;0;0;8;0;9116;0;0;0;0;9;0;4591;0;0;0;0
25.10.19;20:55:00;1;417;7729;0;2;0;7905;0;0;0;0;3;0;4689;0;0;0;0;4;0;5850;0;0;0;0;5;0;14058;2;0;0;0;0;0;6;0;10242;2;0;0;0;0;0;7;0;9346;0;0;0;0;8;0;9116;0;0;0;0;9;0;4591;0;0;0;0
25.10.19;20:50:00;1;440;7694;0;2;0;7905;0;0;0;0;3;0;4689;0;0;0;0;4;0;5850;0;0;0;0;5;0;14058;2;0;0;0;0;0;6;0;10242;2;0;0;0;0;0;7;0;9346;0;0;0;0;8;0;9116;0;0;0;0;9;0;4591;0;0;0;0
25.10.19;20:45:00;1;457;7657;0;2;0;7905;0;0;0;0;3;0;4689;0;0;0;0;4;0;5850;0;0;0;0;5;0;14058;2;0;0;0;0;0;6;0;10242;2;0;0;0;0;0;7;0;9346;0;0;0;0;8;0;9116;0;0;0;0;9;0;4591;0;0;0;0
25.10.19;20:40:00;1;471;7618;0;2;0;7905;0;0;0;0;3;0;4689;0;0;0;0;4;0;5850;0;0;0;0;5;0;14058;2;0;0;0;0;0;6;0;10242;2;0;0;0;0;0;7;0;9346;0;0;0;0;8;0;9116;0;0;0;0;9;0;4591;0;0;0;0
25.10.19;20:35:00;1;578;7578;0;2;0;7905;0;0;0;0;3;0;4689;0;0;0;0;4;0;5850;0;0;0;0;5;0;14058;2;0;0;0;0;0;6;0;10242;2;0;0;0;0;0;7;0;9346;0;0;0;0;8;0;9116;0;0;0;0;9;0;4591;0;0;0;0
25.10.19;20:30:00;1;427;7537;0;2;0;7905;0;0;0;0;3;0;4689;0;0;0;0;4;0;5850;0;0;0;0;5;0;14058;2;0;0;0;0;0;6;0;10242;2;0;0;0;0;0;7;0;9346;0;0;0;0;8;0;9116;0;0;0;0;9;0;4591;0;0;0;0
25.10.19;20:25:00;1;445;7501;0;2;0;7905;0;0;0;0;3;0;4689;0;0;0;0;4;0;5850;0;0;0;0;5;0;14058;2;0;0;0;0;0;6;0;10242;2;0;0;0;0;0;7;0;9346;0;0;0;0;8;0;9116;0;0;0;0;9;0;4591;0;0;0;0
25.10.19;20:20:00;1;460;7463;0;2;0;7905;0;0;0;0;3;0;4689;0;0;0;0;4;0;5850;0;0;0;0;5;0;14058;2;0;0;0;0;0;6;0;10242;2;0;0;0;0;0;7;0;9346;0;0;0;0;8;0;9116;0;0;0;0;9;0;4591;0;0;0;0
25.10.19;20:15:00;1;460;7425;0;2;0;7905;0;0;0;0;3;0;4689;0;0;0;0;4;0;5850;0;0;0;0;5;0;14058;2;0;0;0;0;0;6;0;10242;2;0;0;0;0;0;7;0;9346;0;0;0;0;8;0;9116;0;0;0;0;9;0;4591;0;0;0;0
25.10.19;20:10:00;1;499;7386;0;2;0;7905;0;0;0;0;3;0;4689;0;0;0;0;4;0;5850;0;0;0;0;5;0;14058;2;0;0;0;0;0;6;0;10242;2;0;0;0;0;0;7;0;9346;0;0;0;0;8;0;9116;0;0;0;0;9;0;4591;0;0;0;0
25.10.19;20:05:00;1;500;7344;0;2;0;7905;0;0;0;0;3;0;4689;0;0;0;0;4;0;5850;0;0;0;0;5;0;14058;2;0;0;0;0;0;6;0;10242;2;0;0;0;0;0;7;0;9346;0;0;0;0;8;0;9116;0;0;0;0;9;0;4591;0;0;0;0
25.10.19;20:00:00;1;433;7306;0;2;0;7905;0;0;0;0;3;0;4689;0;0;0;0;4;0;5850;0;0;0;0;5;0;14058;2;0;0;0;0;0;6;0;10242;2;0;0;0;0;0;7;0;9346;0;0;0;0;8;0;9116;0;0;0;0;9;0;4591;0;0;0;0
25.10.19;19:55:00;1;457;7270;0;2;0;7905;0;0;0;0;3;0;4689;0;0;0;0;4;0;5850;0;0;0;0;5;0;14058;2;0;0;0;0;0;6;0;10242;2;0;0;0;0;0;7;0;9346;0;0;0;0;8;0;9116;0;0;0;0;9;0;4591;0;0;0;0
25.10.19;19:50:00;1;462;7232;0;2;0;7905;0;0;0;0;3;0;4689;0;0;0;0;4;0;5850;0;0;0;0;5;0;14058;2;0;0;0;0;0;6;0;10242;2;0;0;0;0;0;7;0;9346;0;0;0;0;8;0;9116;0;0;0;0;9;0;4591;0;0;0;0
25.10.19;19:45:00;1;499;7193;0;2;0;7905;0;0;0;0;3;0;4689;0;0;0;0;4;0;5850;0;0;0;0;5;0;14058;2;0;0;0;0;0;6;0;10242;2;0;0;0;0;0;7;0;9346;0;0;0;0;8;0;9116;0;0;0;0;9;0;4591;0;0;0;0
25.10.19;19:40:00;1;545;7150;0;2;0;7905;0;0;0;0;3;0;4689;0;0;0;0;4;0;5850;0;0;0;0;5;0;14058;2;0;0;0;0;0;6;0;10242;2;0;0;0;0;0;7;0;9346;0;0;0;0;8;0;9116;0;0;0;0;9;0;4591;0;0;0;0
25.10.19;19:35:00;1;483;7106;0;2;0;7905;0;0;0;0;3;0;4689;0;0;0;0;4;0;5850;0;0;0;0;5;0;14058;2;0;0;0;0;0;6;0;10242;2;0;0;0;0;0;7;0;9346;0;0;0;0;8;0;9116;0;0;0;0;9;0;4591;0;0;0;0
25.10.19;19:30:00;1;485;7066;0;2;0;7905;0;0;0;0;3;0;4689;0;0;0;0;4;0;5850;0;0;0;0;5;0;14058;2;0;0;0;0;0;6;0;10242;2;0;0;0;0;0;7;0;9346;0;0;0;0;8;0;9116;0;0;0;0;9;0;4591;0;0;0;0
25.10.19;19:25:00;1;483;7025;0;2;0;7905;0;0;0;0;3;0;4689;0;0;0;0;4;0;5850;0;0;0;0;5;0;14058;2;0;0;0;0;0;6;0;10242;2;0;0;0;0;0;7;0;9346;0;0;0;0;8;0;9116;0;0;0;0;9;0;4591;0;0;0;0
25.10.19;19:20:00;1;537;6985;0;2;0;7905;0;0;0;0;3;0;4689;0;0;0;0;4;0;5850;0;0;0;0;5;0;14058;2;0;0;0;0;0;6;0;10242;2;0;0;0;0;0;7;0;9346;0;0;0;0;8;0;9116;0;0;0;0;9;0;4591;0;0;0;0
25.10.19;19:15:00;1;573;6940;0;2;0;7905;0;0;0;0;3;0;4689;0;0;0;0;4;0;5850;0;0;0;0;5;0;14058;2;0;0;0;0;0;6;0;10242;2;0;0;0;0;0;7;0;9346;0;0;0;0;8;0;9116;0;0;0;0;9;0;4591;0;0;0;0
25.10.19;19:10:00;1;604;6890;0;2;0;7905;0;0;0;0;3;0;4689;0;0;0;0;4;0;5850;0;0;0;0;5;0;14058;2;0;0;0;0;0;6;0;10242;2;0;0;0;0;0;7;0;9346;0;0;0;0;8;0;9116;0;0;0;0;9;0;4591;0;0;0;0
25.10.19;19:05:00;1;1808;6825;0;2;0;7905;0;0;0;0;3;0;4689;0;0;0;0;4;0;5850;0;0;0;0;5;0;14058;2;0;0;0;0;0;6;0;10242;2;0;0;0;0;0;7;0;9346;0;0;0;0;8;0;9116;0;0;0;0;9;0;4591;0;0;0;0
25.10.19;19:00:00;1;531;6689;0;2;0;7905;0;0;0;0;3;0;4689;0;0;0;0;4;0;5850;0;0;0;0;5;0;14058;2;0;0;0;0;0;6;0;10242;2;0;0;0;0;0;7;0;9346;0;0;0;0;8;0;9116;0;0;0;0;9;0;4591;0;0;0;0
25.10.19;18:55:00;1;541;6644;0;2;0;7905;0;0;0;0;3;0;4689;0;0;0;0;4;0;5850;0;0;0;0;5;0;14058;2;0;0;0;0;0;6;0;10242;2;0;0;0;0;0;7;0;9346;0;0;0;0;8;0;9116;0;0;0;0;9;0;4591;0;0;0;0
25.10.19;18:50:00;1;625;6598;0;2;0;7905;0;0;0;0;3;0;4689;0;0;0;0;4;0;5850;0;0;0;0;5;0;14058;2;0;0;0;0;0;6;0;10242;2;0;0;0;0;0;7;0;9346;0;0;0;0;8;0;9116;0;0;0;0;9;0;4591;0;0;0;0
25.10.19;18:45:00;1;720;6550;0;2;0;7905;0;0;0;0;3;0;4689;0;0;0;0;4;0;5850;0;0;0;0;5;0;14058;2;0;0;0;0;0;6;0;10242;2;0;0;0;0;0;7;0;9346;0;0;0;0;8;0;9116;0;0;0;0;9;0;4591;0;0;0;0
25.10.19;18:40:00;1;692;6489;0;2;0;7905;0;0;0;0;3;0;4689;0;0;0;0;4;0;5850;0;0;0;0;5;0;14058;2;0;0;0;0;0;6;0;10242;2;0;0;0;0;0;7;0;9346;0;0;0;0;8;0;9116;0;0;0;0;9;0;4591;0;0;0;0
25.10.19;18:35:00;1;705;6432;0;2;0;7905;0;0;0;0;3;0;4689;0;0;0;0;4;0;5850;0;0;0;0;5;0;14058;2;0;0;0;0;0;6;0;10242;2;0;0;0;0;0;7;0;9346;0;0;0;0;8;0;9116;0;0;0;0;9;0;4591;0;0;0;0
25.10.19;18:30:00;1;779;6373;0;2;0;7905;0;0;0;0;3;0;4689;0;0;0;0;4;0;5850;0;0;0;0;5;0;14058;2;0;0;0;0;0;6;0;10242;2;0;0;0;0;0;7;0;9346;0;0;0;0;8;0;9116;0;0;0;0;9;0;4591;0;0;0;0
25.10.19;18:25:00;1;601;6310;0;2;0;7905;0;0;0;0;3;0;4689;0;0;0;0;4;0;5850;0;0;0;0;5;0;14058;2;0;0;0;0;0;6;0;10242;2;0;0;0;0;0;7;0;9346;0;0;0;0;8;0;9116;0;0;0;0;9;0;4591;0;0;0;0
25.10.19;18:20:00;1;641;6260;0;2;0;7905;0;0;222;21;3;0;4689;6;0;296;27;4;0;5850;0;0;30;12;5;0;14058;2;0;0;0;0;0;6;0;10242;2;0;0;0;0;0;7;0;9346;0;0;0;0;8;0;9116;0;0;0;0;9;0;4591;0;0;0;0
25.10.19;18:15:00;1;810;6202;0;2;0;7905;6;0;310;26;3;0;4689;6;0;370;27;4;0;5850;2;0;95;25;5;0;14058;2;0;0;0;0;0;6;0;10242;2;0;0;0;0;0;7;0;9346;0;0;45;5;8;0;9116;0;0;0;0;9;0;4591;0;0;49;4
25.10.19;18:10:00;1;623;6137;0;2;0;7905;6;0;354;27;3;0;4689;6;2;419;27;4;0;5850;1;0;157;25;5;0;14058;23;0;0;362;369;33;6;0;10242;23;11;0;180;449;31;7;0;9346;6;0;318;26;8;0;9116;6;0;317;25;9;0;4591;6;0;258;17
25.10.19;18:05:00;1;597;6086;0;2;0;7905;6;0;380;27;3;1;4689;6;3;455;28;4;0;5850;1;0;202;26;5;0;14058;26;0;0;398;555;33;6;0;10242;23;9;0;181;532;32;7;0;9346;6;0;399;27;8;0;9116;6;0;400;26;9;0;4591;6;0;402;22
25.10.19;18:00:00;1;565;6036;0;2;0;7905;6;0;400;28;3;2;4689;6;4;489;28;4;0;5850;3;0;197;26;5;47;14058;1;0;8;379;603;34;6;0;10242;23;11;0;385;561;32;7;3;9346;4;5;418;27;8;1;9116;6;3;424;26;9;2;4591;6;4;447;22
25.10.19;17:55:00;1;589;5989;0;2;33;7905;6;59;371;29;3;2;4689;4;7;503;28;4;5;5850;3;5;199;26;5;95;14054;4;8;26;363;580;34;6;0;10242;8;3;5;527;575;33;7;2;9346;0;10;361;22;8;0;9116;6;0;479;27;9;0;4591;6;3;497;22
25.10.19;17:50:00;1;673;5940;0;2;59;7902;4;92;361;29;3;5;4688;6;10;512;29;4;11;5850;3;12;198;27;5;113;14046;4;23;34;364;580;34;6;54;10242;4;34;24;432;219;34;7;13;9346;6;22;444;28;8;9;9116;3;17;444;27;9;0;4591;6;4;511;23
25.10.19;17:45:00;1;588;5886;0;2;96;7897;4;130;359;30;3;22;4688;6;38;511;29;4;33;5849;3;34;197;27;5;140;14036;4;39;49;364;580;34;6;74;10237;4;41;25;432;219;34;7;55;9345;4;89;416;28;8;45;9115;4;84;390;28;9;2;4591;3;7;518;23
25.10.19;17:40:00;1;566;5838;0;2;154;7889;4;193;369;31;3;82;4686;4;116;446;30;4;85;5846;3;89;203;27;5;194;14024;4;72;74;364;580;34;6;98;10231;4;61;38;432;219;34;7;114;9340;4;151;404;28;8;86;9112;4;120;401;28;9;6;4590;6;10;533;23
25.10.19;17:35:00;1;593;5789;0;2;269;7877;4;311;379;31;3;145;4679;4;181;384;30;4;188;5839;5;196;218;27;5;276;14007;4;113;108;364;580;34;6;138;10223;4;97;56;432;219;34;7;222;9331;4;256;460;29;8;144;9104;4;183;438;28;9;24;4590;6;34;400;19
25.10.19;17:30:00;1;604;5739;0;2;305;7854;4;348;382;32;3;171;4667;4;208;397;30;4;228;5824;5;237;224;28;5;314;13984;4;142;120;364;580;35;6;162;10211;4;122;65;432;219;34;7;208;9312;4;238;306;19;8;169;9092;4;211;442;28;9;61;4588;4;87;433;24
25.10.19;17:25:00;1;619;5688;0;2;372;7829;4;417;383;32;3;212;4653;4;249;392;31;4;276;5804;5;288;230;28;5;393;13957;4;178;160;368;580;35;6;241;10197;4;117;122;431;371;34;7;432;9286;4;471;441;29;8;240;9078;4;280;451;29;9;81;4583;4;111;468;25
25.10.19;17:20:00;1;1615;5634;0;2;506;7798;4;555;379;33;3;305;4635;4;345;400;31;4;369;5782;5;385;230;28;5;549;13924;4;256;227;386;612;35;6;411;10176;4;200;218;540;531;34;7;660;9251;4;706;457;30;8;325;9059;4;366;460;29;9;105;4576;4;135;499;25
25.10.19;17:15:00;1;644;5525;0;2;598;7756;4;654;379;34;3;358;4610;4;398;411;31;4;416;5751;5;433;224;28;5;668;13877;4;314;276;394;633;35;6;502;10141;4;248;271;551;544;34;7;785;9196;4;847;457;30;8;442;9031;4;491;468;29;9;99;4565;0;125;410;20
25.10.19;17:10:00;1;968;5470;0;2;809;7706;4;869;374;34;3;478;4580;4;526;415;32;4;532;5716;5;554;226;28;5;882;13820;4;430;376;400;629;35;6;669;10098;4;330;358;566;543;34;7;1074;9131;4;1140;458;30;8;660;8995;4;706;442;29;9;158;4557;4;192;517;26
25.10.19;17:05:00;1;2504;5362;0;2;1028;7639;4;1100;376;35;3;569;4540;4;618;407;32;4;633;5672;5;659;234;29;5;1065;13745;4;523;453;405;651;35;6;817;10041;4;428;439;567;546;34;7;1269;9041;4;1346;460;30;8;896;8940;4;952;406;30;9;183;4544;4;218;516;26
25.10.19;17:00:00;1;2511;5149;0;2;1189;7553;4;1265;373;35;3;648;4493;4;700;413;32;4;679;5620;5;707;213;29;5;1245;13656;4;629;531;401;635;35;6;953;9972;4;480;494;569;545;34;7;1496;8936;4;1578;464;30;8;1292;8866;4;1361;424;30;9;186;4529;4;216;416;26
25.10.19;16:55:00;1;2649;4936;0;2;1327;7455;4;1403;369;36;3;728;4439;4;783;413;32;4;747;5563;5;778;214;29;5;1439;13550;4;729;620;401;640;35;6;1107;9892;4;551;579;572;550;34;7;1665;8811;4;1753;460;30;8;1526;8758;4;1602;435;30;9;271;4513;4;300;352;27
25.10.19;16:50:00;1;1999;4720;0;2;1362;7345;4;1442;371;36;3;745;4379;4;803;413;32;4;757;5501;5;789;215;29;5;1559;13430;4;799;669;411;655;35;6;1185;9799;4;591;605;570;545;34;7;1743;8673;4;1827;462;31;8;1653;8631;4;1739;452;30;9;496;4491;4;536;351;28
25.10.19;16:45:00;1;307;4574;0;2;1605;7231;4;1693;379;36;3;894;4317;4;953;410;32;4;851;5438;5;886;203;29;5;1861;13298;4;966;800;407;663;35;6;1418;9699;4;688;694;573;555;34;7;2065;8528;4;2173;463;31;8;2006;8495;4;2105;459;30;9;727;4449;4;775;359;28
25.10.19;16:40:00;1;267;4548;0;2;1665;7098;4;1758;390;36;3;965;4243;4;1028;411;32;4;875;5367;5;911;200;29;5;2034;13141;4;1067;884;409;668;35;6;1555;9579;4;787;781;575;556;34;7;2206;8356;4;2324;461;31;8;2161;8326;4;2275;460;30;9;874;4390;4;927;386;29
25.10.19;16:35:00;1;280;4525;0;2;1677;6959;4;1771;373;36;3;937;4162;4;1000;413;32;4;802;5295;5;835;220;29;5;2059;12971;4;1061;895;406;662;35;6;1574;9449;4;769;769;572;553;34;7;2106;8173;4;2216;460;31;8;2056;8148;4;2159;460;30;9;888;4317;4;945;409;29
25.10.19;16:30:00;1;306;4502;0;2;1819;6820;4;1917;372;36;3;1013;4084;4;1077;408;32;4;877;5227;5;913;213;29;5;2314;12799;4;1213;1008;412;653;35;6;1776;9316;4;922;914;573;554;34;7;2304;7997;4;2411;462;30;8;2245;7975;4;2357;460;30;9;1026;4242;4;1089;457;30
25.10.19;16:25:00;1;358;4476;0;2;1770;6668;4;1866;373;36;3;987;4000;4;1053;413;32;4;875;5154;5;911;233;29;5;2326;12606;4;1227;1015;410;663;35;6;1787;9168;4;884;889;570;552;34;7;2158;7804;4;2271;460;31;8;2110;7788;4;2211;457;30;9;1052;4156;4;1129;492;30
25.10.19;16:20:00;1;1014;4436;0;2;1924;6520;4;2027;377;35;3;1057;3917;4;1124;407;31;4;923;5081;5;962;233;29;5;2550;12411;4;1340;1116;405;661;35;6;1945;9019;4;965;944;567;548;34;7;2012;7625;4;2114;364;24;8;1507;7518;0;1578;273;18;9;1282;4068;4;1368;503;30
25.10.19;16:15:00;1;290;4354;0;2;2083;6361;4;2194;376;35;3;1142;3830;4;1210;413;31;4;935;5005;5;973;219;29;5;2794;12198;4;1487;1228;408;652;35;6;2132;8856;4;1132;1107;577;547;34;7;2726;7418;4;2850;458;30;8;2667;7409;4;2797;453;30;9;1419;3962;4;1509;508;30
25.10.19;16:10:00;1;274;4330;0;2;2253;6187;4;2371;374;34;3;1236;3735;4;1307;409;31;4;993;4927;5;1034;238;29;5;3060;11963;4;1625;1341;411;662;35;6;2334;8677;4;1187;1181;571;548;34;7;2864;7191;4;3001;456;30;8;2813;7188;4;2952;454;29;9;1503;3846;4;1597;507;30
25.10.19;16:05:00;1;266;4307;0;2;2349;6000;4;2472;383;34;3;1268;3632;4;1342;402;30;4;1062;4844;5;1106;241;29;5;3223;11706;4;1702;1387;411;652;35;6;2460;8481;4;1279;1253;570;551;34;7;2999;6955;4;3142;454;29;8;2946;6955;4;3088;454;29;9;1578;3719;4;1675;508;30
25.10.19;16:00:00;1;277;4284;0;2;2496;5804;4;2626;381;33;3;1345;3526;4;1423;408;30;4;1180;4755;5;1229;239;29;5;3512;11435;4;1881;1550;411;661;35;6;2678;8275;4;1384;1337;575;551;34;7;3211;6702;4;3366;458;29;8;3150;6708;4;3305;452;29;9;1693;3587;4;1799;508;29
25.10.19;15:55:00;1;308;4261;0;2;2582;5596;4;2714;379;32;3;1395;3414;4;1474;413;30;4;1288;4657;5;1341;237;29;5;3699;11141;4;1983;1639;415;660;34;6;2824;8050;4;1470;1428;575;555;34;7;3317;6435;4;3480;459;28;8;3253;6443;4;3411;459;28;9;1754;3445;4;1858;505;29
25.10.19;15:50:00;1;234;4235;0;2;2711;5381;4;2852;397;31;3;1383;3298;4;1464;426;29;4;1455;4550;5;1515;241;29;5;3918;10832;4;2114;1736;415;670;34;6;3000;7814;4;1553;1522;582;560;33;7;3457;6158;4;3625;466;28;8;3392;6173;4;3552;462;28;9;1819;3299;4;1925;516;28
25.10.19;15:45:00;1;229;4216;0;2;2202;5155;4;2318;390;29;3;1029;3182;4;1105;511;29;4;1418;4429;5;1477;240;28;5;3363;10503;4;1813;1482;412;673;34;6;2610;7563;4;1319;1303;576;559;33;7;2961;5871;4;3093;470;27;8;2907;5890;4;3041;461;27;9;1526;3148;4;1620;527;27
25.10.19;15:40:00;1;256;4196;0;2;1559;4970;4;1649;390;28;3;866;3096;4;936;507;29;4;1173;4311;5;1222;238;28;5;2458;10240;4;1290;1079;415;656;34;6;1871;7358;4;989;984;566;552;33;7;2000;5619;4;2095;463;27;8;1974;5646;4;2076;471;27;9;1072;3020;4;1149;517;26
25.10.19;15:35:00;1;248;4174;0;2;1154;4841;4;1227;392;28;3;712;3024;4;774;506;29;4;946;4214;5;985;236;28;5;1958;10035;4;1011;852;407;655;34;6;1485;7202;4;755;757;570;545;33;7;1395;5456;4;1474;467;27;8;1392;5481;4;1461;464;27;9;744;2930;4;805;519;26
25.10.19;15:30:00;1;398;4152;0;2;1052;4743;4;1119;392;28;3;663;2964;4;726;505;29;4;897;4133;5;935;230;28;5;1917;9873;4;982;840;406;641;34;6;1458;7078;4;742;736;571;552;33;7;1234;5338;4;1306;471;27;8;1234;5364;4;1303;461;27;9;655;2868;4;715;518;26
25.10.19;15:25:00;1;364;4118;0;2;1162;4654;4;1232;394;28;3;712;2908;4;774;505;29;4;958;4058;5;998;233;28;5;2055;9713;4;1060;897;407;655;34;6;1560;6955;4;802;797;568;550;33;7;1281;5234;4;1354;466;27;8;1272;5261;4;1348;464;27;9;683;2813;4;742;515;26
25.10.19;15:20:00;1;318;4087;0;2;1009;4555;4;1077;387;28;3;648;2848;4;709;502;29;4;899;3977;5;937;232;28;5;2021;9528;4;1049;882;404;644;34;6;1578;6815;4;805;789;568;549;33;7;1327;5128;4;1400;463;27;8;1345;5155;4;1412;461;27;9;741;2756;4;800;516;26
25.10.19;15:15:00;1;319;4061;0;2;882;4471;4;944;391;28;3;559;2794;4;616;503;29;4;778;3902;5;810;233;28;5;1765;9365;4;900;766;402;643;34;6;1344;6688;4;671;676;562;549;33;7;1054;5017;4;1117;457;27;8;1053;5043;4;1109;456;27;9;563;2695;4;615;521;26
25.10.19;15:10:00;1;306;4034;0;2;864;4397;4;926;386;28;3;543;2747;4;602;503;29;4;755;3837;5;787;231;28;5;1721;9218;4;887;749;402;633;34;6;1314;6577;4;672;669;569;545;33;7;1013;4929;4;1074;449;27;8;1017;4955;4;1080;456;27;9;547;2648;4;600;511;26
25.10.19;15:05:00;1;282;4008;0;2;910;4325;4;973;390;28;3;578;2702;4;637;500;29;4;810;3774;5;843;229;28;5;1811;9074;4;939;793;400;644;34;6;1394;6467;4;738;737;568;548;33;7;1057;4844;4;1111;451;27;8;1051;4869;4;1120;459;27;9;569;2602;4;621;510;26
25.10.19;15:00:00;1;324;3984;0;2;924;4249;4;987;387;28;3;584;2654;4;644;498;29;4;816;3707;5;849;230;28;5;1852;8922;4;960;807;400;643;34;6;1412;6351;4;719;706;570;550;33;7;981;4756;4;1043;457;27;8;984;4783;4;1044;453;27;9;528;2555;4;580;509;26
25.10.19;14:55:00;1;239;3958;0;2;862;4172;4;921;387;29;3;545;2605;4;605;503;29;4;760;3639;5;792;226;28;5;1737;8768;4;895;753;403;645;34;6;1330;6232;4;688;694;562;546;33;7;952;4674;4;1011;456;27;8;952;4700;4;1011;451;27;9;517;2510;4;566;502;26
25.10.19;14:50:00;1;289;3937;0;2;1003;4100;4;1070;384;29;3;633;2560;4;692;495;29;4;887;3575;5;924;229;28;5;2049;8625;4;1079;897;401;637;34;6;1548;6123;4;779;776;569;547;33;7;1130;4595;4;1192;456;27;8;1109;4622;4;1178;458;27;9;593;2468;4;647;507;26
25.10.19;14:45:00;1;312;3913;0;2;1345;4018;4;1428;392;29;3;862;2507;4;931;498;29;4;1191;3502;5;1240;229;28;5;2654;8449;4;1405;1162;409;664;34;6;2030;5990;4;1070;1051;565;545;33;7;1631;4502;4;1718;455;27;8;1628;4529;4;1711;459;27;9;884;2418;4;948;507;26
25.10.19;14:40:00;1;272;3887;0;2;1399;3906;4;1479;387;29;3;895;2436;4;965;499;29;4;1229;3403;5;1280;233;28;5;2691;8227;4;1431;1181;406;662;34;6;2059;5821;4;1031;1015;572;549;33;7;1374;4366;4;1452;387;22;8;1644;4395;4;1730;463;27;9;894;2345;4;960;512;26
25.10.19;14:35:00;1;242;3864;0;2;1421;3789;4;1505;392;29;3;907;2361;4;978;492;29;4;1250;3301;5;1302;230;28;5;2756;8003;4;1470;1215;407;656;34;6;2093;5650;4;1075;1047;574;551;33;7;1678;4231;4;1769;463;27;8;1673;4259;4;1755;462;27;9;903;2271;4;967;507;26
25.10.19;14:30:00;1;248;3842;0;2;1367;3671;4;1447;389;29;3;878;2286;4;945;496;29;4;1208;3197;5;1259;234;27;5;2658;7772;4;1406;1172;406;651;34;6;2038;5474;4;1063;1038;567;545;33;7;1673;4089;4;1763;462;27;8;1668;4118;4;1756;456;27;9;912;2195;4;977;507;26
25.10.19;14:25:00;1;206;3821;0;2;1272;3557;4;1352;392;29;3;812;2212;4;882;497;29;4;1124;3096;5;1171;231;27;5;2521;7552;4;1341;1107;405;656;34;6;1923;5306;4;954;957;572;549;33;7;1562;3950;4;1653;463;27;8;1562;3979;4;1643;459;26;9;507;2119;4;546;307;15